Location: Unspecified
(35.7250°N, 0.0000°E)
Time: 10:57:12
(UTC+00:00)

Vanguard 1 Rocket - Pass Details

Date: 17 June 2019
Orbit: 650 x 4226 km, 34.3° (Epoch: 13 October)

Event Time Altitude Azimuth Distance (km) Brightness Sun altitude
Rises 18:36:03 0° 245° (WSW) 6,984 12.6 6.8°
Reaches altitude 10° 18:41:32 10° 243° (WSW) 5,397 12.0 5.8°
Maximum altitude 18:55:10 65° 166° (SSE) 1,674 8.7 3.3°
Drops below altitude 10° 19:02:05 10° 85° (E) 2,869 9.5 2.0°
Sets 19:04:09 0° 82° (E) 3,587 10.0 1.7°
